Total_Precipitation_Accumulation
0.24 0.28 0.37 0.52 0.45 0.31 0.18 0.07 0.04 0.06 0.07 0.06 0.05 0.06 0.08 0.11 0.17 0.25 0.23 0.19 0.15 0.17 0.27 0.43 0.51 0.55 0.57 0.53 0.43 0.33 0.32 0.36 0.41 0.45 0.45 0.46 0.44 0.37 0.36 0.36 0.40 0.44 0.51 0.50 0.45 0.33 0.24 0.22 0.17
0.24 0.37 0.58 0.67 0.46 0.25 0.12 0.07 0.06 0.07 0.08 0.09 0.08 0.08 0.11 0.15 0.16 0.18 0.25 0.30 0.24 0.24 0.37 0.44 0.55 0.59 0.61 0.59 0.50 0.42 0.37 0.40 0.45 0.50 0.53 0.54 0.50 0.43 0.45 0.43 0.42 0.44 0.44 0.37 0.32 0.26 0.21 0.16 0.13
0.31 0.52 0.80 0.70 0.43 0.25 0.12 0.07 0.07 0.07 0.08 0.11 0.14 0.15 0.20 0.25 0.21 0.25 0.31 0.37 0.40 0.38 0.47 0.58 0.65 0.68 0.68 0.63 0.59 0.53 0.47 0.49 0.53 0.54 0.58 0.57 0.57 0.52 0.55 0.48 0.41 0.37 0.33 0.30 0.27 0.23 0.19 0.15 0.13
0.48 0.79 0.92 0.69 0.37 0.17 0.12 0.09 0.08 0.10 0.10 0.12 0.19 0.28 0.34 0.31 0.26 0.32 0.39 0.43 0.51 0.55 0.63 0.80 0.87 0.87 0.80 0.73 0.69 0.65 0.59 0.58 0.59 0.60 0.63 0.64 0.66 0.64 0.61 0.50 0.37 0.28 0.24 0.24 0.23 0.19 0.17 0.16 0.14
0.75 1.03 0.92 0.61 0.31 0.15 0.10 0.10 0.11 0.13 0.13 0.14 0.22 0.36 0.49 0.42 0.40 0.48 0.51 0.54 0.63 0.65 0.78 0.98 1.10 1.08 0.93 0.83 0.78 0.77 0.76 0.76 0.73 0.69 0.72 0.79 0.74 0.69 0.63 0.48 0.33 0.24 0.20 0.20 0.20 0.19 0.19 0.20 0.16
1.06 1.08 0.87 0.54 0.26 0.16 0.11 0.12 0.14 0.16 0.17 0.19 0.27 0.44 0.61 0.63 0.66 0.74 0.75 0.72 0.80 0.76 0.87 1.09 1.22 1.15 1.05 1.01 0.94 0.92 0.95 0.90 0.86 0.82 0.89 0.91 0.84 0.71 0.61 0.49 0.35 0.26 0.22 0.21 0.21 0.21 0.22 0.21 0.21
1.12 0.94 0.68 0.42 0.25 0.20 0.15 0.13 0.17 0.19 0.21 0.25 0.28 0.53 0.74 0.91 1.02 1.07 1.11 1.09 1.04 1.02 1.11 1.26 1.27 1.19 1.08 1.00 0.99 0.98 1.04 1.07 0.96 0.88 0.90 0.92 0.86 0.72 0.61 0.46 0.39 0.30 0.26 0.25 0.23 0.23 0.23 0.22 0.22
1.11 1.08 0.66 0.41 0.30 0.24 0.20 0.20 0.18 0.21 0.26 0.29 0.36 0.61 0.84 1.02 1.27 1.48 1.48 1.60 1.51 1.45 1.42 1.42 1.43 1.34 1.19 1.03 1.05 1.04 1.00 0.98 0.97 0.91 0.80 0.73 0.70 0.62 0.58 0.42 0.38 0.33 0.29 0.26 0.24 0.23 0.23 0.21 0.17
1.18 1.23 0.74 0.40 0.33 0.28 0.27 0.29 0.25 0.22 0.31 0.42 0.44 0.59 0.87 1.18 1.54 1.92 1.93 2.00 2.00 1.84 1.78 1.63 1.63 1.53 1.45 1.31 1.21 1.20 1.08 0.97 0.94 0.89 0.77 0.70 0.72 0.65 0.53 0.34 0.31 0.31 0.28 0.25 0.23 0.23 0.22 0.18 0.14
1.27 1.07 0.57 0.32 0.30 0.33 0.34 0.38 0.36 0.34 0.41 0.50 0.62 0.68 1.06 1.52 1.86 2.09 2.14 2.03 2.13 2.02 1.96 1.83 1.74 1.69 1.67 1.45 1.34 1.37 1.22 1.04 0.94 0.86 0.84 0.76 0.72 0.67 0.54 0.41 0.31 0.32 0.28 0.25 0.25 0.25 0.23 0.19 0.15
1.02 0.70 0.47 0.38 0.37 0.40 0.43 0.45 0.47 0.50 0.51 0.52 0.60 0.72 1.08 1.61 2.09 2.18 2.34 2.27 2.26 2.33 2.24 2.09 1.96 1.83 1.79 1.71 1.44 1.37 1.26 1.15 1.07 0.94 0.91 0.86 0.84 0.75 0.65 0.59 0.45 0.40 0.33 0.30 0.30 0.30 0.24 0.21 0.20
0.84 0.56 0.53 0.53 0.48 0.53 0.54 0.53 0.52 0.53 0.51 0.50 0.61 0.72 1.04 1.45 1.90 2.23 2.38 2.45 2.28 2.40 2.44 2.26 2.11 2.00 1.89 1.79 1.66 1.47 1.34 1.20 1.09 0.98 0.87 0.90 0.91 0.80 0.66 0.58 0.50 0.45 0.38 0.34 0.33 0.30 0.25 0.21 0.19
0.74 0.58 0.58 0.61 0.60 0.65 0.67 0.61 0.58 0.53 0.51 0.58 0.79 1.00 1.16 1.39 1.68 2.13 2.44 2.52 2.39 2.32 2.50 2.47 2.31 2.13 1.97 1.87 1.79 1.63 1.38 1.18 1.16 1.15 1.02 0.88 0.81 0.73 0.65 0.54 0.52 0.48 0.44 0.42 0.38 0.33 0.28 0.25 0.22
0.62 0.58 0.65 0.71 0.75 0.74 0.83 0.69 0.68 0.62 0.61 0.77 0.95 1.10 1.30 1.48 1.66 2.03 2.33 2.49 2.35 2.22 2.40 2.51 2.56 2.40 2.16 1.90 1.76 1.70 1.55 1.35 1.29 1.28 1.19 1.07 0.92 0.79 0.68 0.56 0.50 0.47 0.43 0.40 0.40 0.38 0.34 0.31 0.26
0.71 0.76 0.82 0.85 0.83 0.81 0.92 0.91 0.69 0.66 0.76 0.84 0.92 1.08 1.28 1.50 1.78 2.06 2.18 2.39 2.50 2.30 2.35 2.48 2.59 2.65 2.46 2.19 1.93 1.81 1.66 1.52 1.42 1.36 1.38 1.28 1.13 0.96 0.84 0.70 0.55 0.48 0.48 0.46 0.45 0.47 0.41 0.32 0.28
1.12 1.06 0.99 0.85 0.81 0.81 1.04 1.04 0.70 0.66 0.80 0.85 0.92 1.06 1.22 1.40 1.68 1.97 2.17 2.35 2.62 2.60 2.53 2.60 2.57 2.68 2.67 2.49 2.22 1.98 1.81 1.62 1.43 1.28 1.31 1.34 1.23 1.11 1.01 0.93 0.79 0.68 0.63 0.61 0.54 0.49 0.49 0.37 0.30
1.19 0.97 0.78 0.74 0.74 0.82 0.96 0.91 0.76 0.70 0.73 0.83 0.90 0.99 1.20 1.30 1.47 1.71 1.99 2.29 2.60 2.72 2.76 2.82 2.78 2.63 2.67 2.68 2.52 2.23 1.94 1.71 1.54 1.33 1.24 1.28 1.29 1.18 1.05 0.95 0.95 0.93 0.82 0.70 0.63 0.52 0.52 0.47 0.38
0.72 0.57 0.52 0.57 0.59 0.67 0.75 0.73 0.77 0.80 0.77 0.74 0.82 0.86 1.05 1.16 1.22 1.39 1.67 2.10 2.51 2.73 2.73 2.77 2.85 2.88 2.86 2.85 2.83 2.55 2.18 1.89 1.68 1.53 1.40 1.34 1.35 1.32 1.22 1.07 1.02 1.03 1.01 0.90 0.78 0.67 0.58 0.54 0.52
0.55 0.51 0.46 0.37 0.39 0.54 0.62 0.69 0.79 0.85 0.78 0.74 0.81 0.81 0.85 0.97 1.08 1.19 1.40 1.74 2.12 2.56 2.62 2.59 2.63 2.75 2.86 2.90 2.81 2.61 2.28 2.09 1.88 1.70 1.61 1.52 1.43 1.40 1.40 1.28 1.21 1.21 1.17 1.11 1.07 0.99 0.84 0.70 0.67
0.61 0.58 0.51 0.43 0.42 0.57 0.62 0.72 0.71 0.75 0.78 0.75 0.76 0.76 0.74 0.84 1.00 1.12 1.29 1.52 1.70 2.13 2.46 2.48 2.53 2.55 2.60 2.60 2.71 2.74 2.58 2.32 2.11 1.91 1.74 1.61 1.47 1.41 1.42 1.44 1.38 1.28 1.29 1.26 1.23 1.14 1.01 0.89 0.83
0.62 0.49 0.48 0.57 0.60 0.66 0.68 0.74 0.66 0.63 0.70 0.67 0.64 0.69 0.66 0.73 0.92 1.05 1.16 1.41 1.56 1.86 2.25 2.43 2.50 2.56 2.50 2.59 2.89 3.00 2.91 2.59 2.32 2.09 1.85 1.69 1.59 1.52 1.41 1.34 1.36 1.34 1.33 1.33 1.32 1.32 1.32 1.20 1.08
0.68 0.41 0.46 0.61 0.83 0.89 0.70 0.85 0.63 0.60 0.60 0.61 0.60 0.65 0.66 0.69 0.83 0.90 0.99 1.27 1.43 1.62 1.90 2.12 2.41 2.57 2.60 2.66 2.81 2.79 2.57 2.33 2.11 2.07 1.97 1.83 1.72 1.60 1.53 1.46 1.39 1.36 1.35 1.33 1.38 1.42 1.42 1.44 1.33
0.63 0.50 0.56 0.68 0.90 0.92 0.57 0.71 0.61 0.56 0.59 0.63 0.64 0.72 0.75 0.72 0.78 0.90 0.95 1.08 1.19 1.41 1.68 1.80 2.01 2.25 2.40 2.47 2.62 2.70 2.50 2.25 2.08 2.02 1.97 1.87 1.79 1.66 1.55 1.47 1.47 1.44 1.40 1.37 1.39 1.45 1.46 1.47 1.46
0.68 0.83 0.85 0.85 1.16 1.18 0.55 0.57 0.58 0.59 0.61 0.61 0.63 0.70 0.73 0.73 0.79 0.86 0.85 0.93 1.03 1.19 1.48 1.65 1.81 1.98 2.17 2.23 2.39 2.56 2.38 2.15 1.93 1.83 1.81 1.74 1.68 1.57 1.45 1.38 1.36 1.36 1.35 1.32 1.28 1.33 1.39 1.40 1.37
1.03 1.41 1.63 1.50 1.37 0.89 0.42 0.51 0.62 0.56 0.53 0.58 0.66 0.67 0.68 0.69 0.71 0.77 0.80 0.92 0.98 1.08 1.21 1.30 1.44 1.58 1.80 1.95 2.03 2.22 2.22 2.11 1.95 1.76 1.70 1.62 1.54 1.43 1.34 1.30 1.25 1.27 1.28 1.28 1.27 1.23 1.21 1.28 1.31
0.95 1.14 1.32 1.12 0.74 0.47 0.39 0.53 0.57 0.48 0.50 0.56 0.62 0.64 0.61 0.65 0.70 0.70 0.75 0.86 0.96 1.06 1.05 1.01 1.08 1.25 1.38 1.50 1.60 1.77 1.79 1.83 1.83 1.72 1.59 1.52 1.42 1.34 1.30 1.32 1.32 1.32 1.31 1.26 1.26 1.22 1.16 1.17 1.18
0.89 0.89 0.75 0.95 0.68 0.54 0.46 0.46 0.48 0.46 0.50 0.52 0.54 0.58 0.59 0.60 0.62 0.67 0.76 0.82 0.85 0.92 0.92 0.89 0.92 1.01 1.07 1.22 1.32 1.45 1.47 1.48 1.54 1.54 1.49 1.47 1.40 1.31 1.28 1.31 1.29 1.24 1.22 1.16 1.17 1.16 1.10 1.04 1.03
0.76 0.72 0.88 1.26 1.07 0.75 0.45 0.43 0.59 0.52 0.52 0.56 0.55 0.56 0.59 0.58 0.62 0.71 0.81 0.85 0.85 0.88 0.87 0.81 0.83 0.89 0.96 1.04 1.17 1.26 1.28 1.33 1.36 1.35 1.28 1.24 1.22 1.18 1.17 1.20 1.20 1.15 1.11 1.09 1.07 1.03 0.98 0.95 0.90
0.72 0.83 0.93 0.95 0.76 0.78 0.58 0.56 0.54 0.45 0.44 0.48 0.47 0.50 0.53 0.53 0.58 0.70 0.80 0.88 0.88 0.83 0.79 0.78 0.74 0.78 0.85 0.91 0.98 1.06 1.07 1.10 1.19 1.18 1.16 1.11 1.03 0.96 0.95 1.03 1.05 1.00 0.95 0.94 0.94 0.91 0.89 0.88 0.86
0.56 0.61 0.75 1.05 0.75 0.59 0.61 0.59 0.44 0.35 0.33 0.35 0.37 0.40 0.42 0.45 0.51 0.60 0.67 0.71 0.74 0.75 0.77 0.79 0.75 0.75 0.77 0.84 0.90 0.94 0.94 0.92 0.98 1.02 1.04 1.01 0.97 0.90 0.86 0.89 0.92 0.90 0.85 0.82 0.83 0.82 0.81 0.84 0.85